Location: Unspecified
(0.0000°N, 0.0000°E)
Time: 06:39:21
(UTC+00:00)

Hubble Space Telescope - Visible Passes

Search period start: 16 September 2019 00:00
Search period end: 26 September 2019 00:00
Orbit: 536 x 540 km, 28.5° (Epoch: 14 September)

Date Brightness Start Highest point End Pass type
(mag) Time Alt. Az. Time Alt. Az. Time Alt. Az.
20 Sep 3.4 19:53:47 10° SW 19:54:32 14° SW 19:54:32 14° SW visible
21 Sep 2.6 19:43:04 10° SW 19:45:01 26° SW 19:45:01 26° SW visible
22 Sep 1.5 19:32:26 10° WSW 19:35:33 50° SW 19:35:33 50° SW visible
23 Sep 0.9 19:21:55 10° WSW 19:26:02 66° NNW 19:26:07 66° NNW visible
24 Sep 1.6 19:11:31 10° WSW 19:15:29 45° NNW 19:16:42 34° NNE visible
25 Sep 2.4 05:25:21 10° NNW 05:29:02 31° NNE 05:32:42 10° E visible
25 Sep 2.2 19:01:13 10° W 19:04:56 32° NNW 19:07:15 18° NNE visible
